AR316 Weather Reports


time (UTC)temp
F
wind
direction
speed
knots
gust
knots
rain 1hr
in
rain 24hr
in
rain mn
in
humidity
%
barometer
mb
20260505125004 50 338 0.0 0.0 0.00 0.00 0.00 53 1012.1
20260505124005 50 338 0.0 0.0 0.00 0.00 0.00 52 1012.1
20260505123005 50 338 0.0 0.0 0.00 0.00 0.00 53 1012.1
20260505121005 51 338 0.0 1.7 0.00 0.00 0.00 52 1011.8
20260505120005 52 338 2.6 2.6 0.00 0.00 0.00 51 1011.8
20260505115004 53 338 0.0 4.3 0.00 0.00 0.00 50 1011.8
20260505114005 53 338 1.7 2.6 0.00 0.00 0.00 50 1011.8
20260505113004 52 338 1.7 2.6 0.00 0.00 0.00 51 1011.8
20260505112005 52 338 1.7 2.6 0.00 0.00 0.00 52 1011.8
20260505101004 53 338 1.7 1.7 0.00 0.00 0.00 52 1011.5
20260505100005 53 338 0.0 0.0 0.00 0.00 0.00 52 1011.1
20260505095005 53 338 0.0 1.7 0.00 0.00 0.00 52 1011.1
20260505094005 54 338 0.0 1.7 0.00 0.00 0.00 50 1011.1
20260505093005 54 338 0.0 0.9 0.00 0.00 0.00 50 1011.1
20260505092004 55 0 0.9 1.7 0.00 0.00 0.00 48 1010.8
20260505091005 55 0 0.0 1.7 0.00 0.00 0.00 48 1010.8
20260505085005 55 338 0.9 2.6 0.00 0.00 0.00 48 1010.8
20260505084006 55 326 0.0 1.7 0.00 0.00 0.00 48 1010.4
20260505083004 55 338 1.7 1.7 0.00 0.00 0.00 49 1010.4
20260505082005 55 338 1.7 1.7 0.00 0.00 0.00 49 1010.4
20260505081005 56 338 0.9 0.9 0.00 0.00 0.00 48 1010.4
20260505080006 56 338 0.0 2.6 0.00 0.00 0.00 48 1010.4
20260505075004 56 338 2.6 2.6 0.00 0.00 0.00 47 1010.1
20260505074004 56 338 0.0 2.6 0.00 0.00 0.00 47 1010.1
20260505073005 56 338 0.0 2.6 0.00 0.00 0.00 47 1010.1
20260505072005 57 338 1.7 2.6 0.00 0.00 0.00 46 1010.1
20260505071005 57 338 0.0 1.7 0.00 0.00 0.00 45 1010.0
20260505070005 57 315 1.7 2.6 0.00 0.00 0.00 46 1009.8
20260505065005 58 315 2.6 2.6 0.00 0.00 0.00 44 1009.8
20260505064006 58 315 1.7 2.6 0.00 0.00 0.00 44 1009.8
20260505063005 58 315 1.7 1.7 0.00 0.00 0.00 44 1009.8
20260505062004 59 292 1.7 1.7 0.00 0.00 0.00 43 1009.8
20260505060004 59 0 2.6 2.6 0.00 0.00 0.00 43 1009.8
20260505054005 60 315 2.6 2.6 0.00 0.00 0.00 43 1009.4
20260505053004 59 316 0.9 4.3 0.00 0.00 0.00 43 1009.4
20260505052004 60 338 4.3 4.3 0.00 0.00 0.00 41 1009.4
20260505041005 61 338 0.9 2.6 0.00 0.00 0.00 41 1008.8
20260505040005 61 338 1.7 2.6 0.00 0.00 0.00 41 1008.4
20260505035004 62 338 0.0 2.6 0.00 0.00 0.00 41 1008.8
20260505034006 62 338 1.7 2.6 0.00 0.00 0.00 41 1008.1
20260505033006 62 338 1.7 2.6 0.00 0.00 0.00 41 1008.4
20260505031005 62 338 0.0 1.7 0.00 0.00 0.00 41 1008.1
20260505030004 63 338 0.0 0.9 0.00 0.00 0.00 41 1008.1
20260505025004 63 338 0.9 1.7 0.00 0.00 0.00 41 1007.7
20260505024006 64 338 0.9 2.6 0.00 0.00 0.00 40 1007.7
20260505023004 64 338 0.0 2.6 0.00 0.00 0.00 40 1007.7
20260505022005 64 338 1.7 1.7 0.00 0.00 0.00 41 1007.7
20260505021004 64 338 1.7 1.7 0.00 0.00 0.00 41 1008.0
20260505020004 65 338 0.9 0.9 0.00 0.00 0.00 41 1007.7
20260505015004 66 45 0.0 0.0 0.00 0.00 0.00 40 1007.7
20260505014004 67 90 0.0 0.0 0.00 0.00 0.00 40 1007.7
20260505013004 68 90 0.0 0.0 0.00 0.00 0.00 36 1007.7
20260505012004 68 90 0.0 0.0 0.00 0.00 0.00 36 1007.7
20260505011005 69 90 0.0 0.0 0.00 0.00 0.00 36 1007.9
20260505010005 70 90 0.0 0.0 0.00 0.00 0.00 35 1007.7
20260505005005 71 68 0.0 0.0 0.00 0.00 0.00 35 1007.7
20260505004004 72 68 0.0 0.0 0.00 0.00 0.00 34 1008.1
20260505003004 73 68 0.0 0.0 0.00 0.00 0.00 32 1007.7
20260505002005 74 22 0.0 0.0 0.00 0.00 0.00 31 1007.7
20260505001003 74 0 0.0 2.6 0.00 0.00 0.00 29 1007.7
20260505000005 76 22 0.0 0.0 0.00 0.00 0.00 29 1007.7
20260504235005 77 22 0.0 1.7 0.00 0.00 0.00 29 1008.1
20260504234004 79 232 0.0 0.0 0.00 0.00 0.00 28 1008.1
20260504232004 81 135 0.0 0.0 0.00 0.00 0.00 25 1008.1
20260504231005 83 112 0.0 0.0 0.00 0.00 0.00 25 1008.1
20260504230004 83 135 0.9 0.9 0.00 0.00 0.00 25 1008.1
20260504225004 83 68 0.0 0.0 0.00 0.00 0.00 25 1008.1
20260504224007 82 135 0.0 0.0 0.00 0.00 0.00 25 1008.1
20260504223005 82 135 0.0 0.0 0.00 0.00 0.00 26 1008.1
20260504222005 82 0 1.7 2.6 0.00 0.00 0.00 26 1008.1
20260504221006 82 22 0.9 1.7 0.00 0.00 0.00 25 1008.1
20260504220005 82 135 0.0 0.0 0.00 0.00 0.00 26 1008.4
20260504215004 81 135 0.0 2.6 0.00 0.00 0.00 26 1008.2
20260504214004 81 135 1.7 2.6 0.00 0.00 0.00 26 1008.4
20260504213004 81 96 0.0 0.0 0.00 0.00 0.00 26 1008.4
20260504212004 81 135 0.0 0.0 0.00 0.00 0.00 26 1008.6
20260504205004 80 68 0.0 0.0 0.00 0.00 0.00 27 1008.8
20260504203004 80 135 0.9 2.6 0.00 0.00 0.00 27 1008.8
20260504201005 80 158 0.0 1.7 0.00 0.00 0.00 27 1008.8
20260504200005 79 135 2.6 2.6 0.00 0.00 0.00 27 1008.8
20260504195004 79 135 0.0 0.0 0.00 0.00 0.00 27 1008.4
20260504194004 79 135 0.0 0.0 0.00 0.00 0.00 28 1008.8
20260504193006 79 112 0.0 1.7 0.00 0.00 0.00 28 1008.8
20260504192005 79 90 0.0 1.7 0.00 0.00 0.00 28 1008.8
20260504191004 77 135 0.0 0.0 0.00 0.00 0.00 29 1008.9
20260504185004 77 45 0.0 0.0 0.00 0.00 0.00 31 1008.8
20260504184005 75 0 0.0 0.0 0.00 0.00 0.00 29 1008.8
20260504183005 75 135 0.0 0.0 0.00 0.00 0.00 32 1009.1
20260504181004 74 135 0.9 1.7 0.00 0.00 0.00 32 1009.1
20260504180004 73 135 0.0 0.0 0.00 0.00 0.00 33 1009.1
20260504175004 73 135 0.0 0.9 0.00 0.00 0.00 34 1009.1
20260504174004 71 158 1.7 1.7 0.00 0.00 0.00 35 1009.1
20260504173004 70 135 0.0 0.0 0.00 0.00 0.00 36 1009.1
20260504171004 68 135 0.0 0.9 0.00 0.00 0.00 38 1009.1
20260504151005 57 0 0.0 2.6 0.00 0.00 0.00 50 1009.4